Probability
0 0 0 0 0 0 0 0 0 0 0 0 3 13 23 30 34 34 36 40 42 37 32 30 27 23 21 21 18 16 15 14 13 13 10 6 3 2 2 2 2 4 4 3
0 0 0 0 0 0 0 0 0 0 0 0 3 12 20 26 30 33 35 39 40 36 31 29 27 23 20 18 16 14 14 12 10 10 9 7 6 5 3 2 3 3 3 3
0 0 0 0 0 0 0 0 1 1 1 0 3 8 16 20 24 29 33 38 37 33 31 29 27 23 20 17 15 14 14 12 8 7 9 9 8 7 5 3 3 2 2 2
0 0 0 0 0 0 0 0 1 1 1 0 1 5 10 16 20 24 30 36 36 33 31 29 26 24 21 19 17 15 14 12 9 7 8 9 7 5 3 3 2 2 1 1
0 0 0 0 0 0 0 0 0 0 0 0 0 1 5 10 17 22 28 34 36 33 31 28 25 23 21 19 18 15 13 11 10 9 8 7 5 3 2 1 1 1 2 2
0 0 0 0 0 0 0 0 0 0 0 0 0 0 2 5 11 18 26 32 33 32 30 26 22 20 18 18 18 17 14 12 10 9 7 5 4 3 2 0 0 1 1 1
0 0 0 0 0 0 0 0 0 0 0 0 0 0 1 3 7 13 22 28 29 29 29 25 21 18 18 20 19 17 13 10 9 8 6 3 2 1 1 0 0 0 0 0
0 0 0 0 0 0 0 0 0 0 0 0 0 0 1 4 7 11 17 23 25 26 27 25 22 20 20 20 18 14 10 8 7 7 4 1 0 0 0 0 0 0 0 0
0 0 0 0 0 0 0 0 0 0 0 0 0 1 3 6 9 11 15 18 21 23 25 25 23 21 19 17 14 10 7 6 6 4 2 1 0 0 0 0 0 0 0 0
0 0 0 0 0 0 0 0 0 0 0 0 0 1 3 6 9 12 14 14 17 20 22 23 22 19 16 13 10 6 5 4 4 2 1 0 0 0 0 0 0 0 0 0
0 0 0 0 0 0 0 0 0 0 0 0 0 1 2 3 6 10 12 12 13 16 19 20 18 15 12 10 7 5 3 2 1 0 0 0 0 0 0 0 0 0 0 0
0 0 0 0 0 0 0 0 0 0 0 0 0 1 1 0 2 6 10 11 12 14 15 16 15 13 10 8 7 4 1 1 0 0 0 0 0 0 0 0 0 0 0 0
0 0 0 0 0 0 0 0 0 0 0 0 0 0 1 1 1 3 7 12 14 13 13 12 12 10 8 6 4 2 0 0 0 0 0 0 0 0 0 0 0 0 0 0
0 0 0 0 0 0 0 1 0 0 0 0 0 1 2 1 1 2 6 11 14 12 9 7 6 5 3 2 1 0 0 0 0 0 0 0 0 0 0 0 0 0 0 0
0 0 0 0 0 0 0 1 1 1 1 1 1 2 2 2 2 4 5 8 10 8 6 4 2 1 0 0 0 0 0 0 0 0 0 0 0 0 0 0 0 0 0 0
0 0 0 0 0 0 0 0 1 2 2 2 3 3 2 2 4 5 5 5 5 4 4 3 1 0 0 0 0 0 0 0 0 0 0 0 0 0 0 0 0 0 0 0
0 0 0 0 0 0 0 0 1 1 1 1 2 2 2 3 4 4 3 3 2 2 2 2 1 0 0 0 0 0 0 0 0 0 0 0 0 0 0 0 0 0 0 0
0 0 0 0 0 0 0 0 0 1 1 0 0 1 1 1 1 1 1 1 1 1 1 1 0 0 0 0 0 0 0 0 0 0 0 0 0 0 0 0 0 0 0 0
0 0 0 0 0 0 0 0 1 1 0 0 0 0 0 0 0 0 0 0 0 0 0 0 0 0 0 0 0 0 0 0 0 0 0 0 0 0 0 0 0 0 0 0
0 0 0 0 0 0 0 0 0 0 0 0 0 0 0 0 0 0 0 0 0 0 0 0 0 0 0 0 0 0 0 0 0 0 0 0 0 0 0 0 0 0 0 0
0 0 0 0 0 0 0 0 0 0 0 0 0 0 0 0 0 0 0 0 0 0 0 0 0 0 0 0 0 0 0 0 0 0 0 0 0 0 0 0 0 0 0 0
0 0 0 0 0 0 0 0 0 0 0 0 0 0 0 0 0 0 0 0 0 0 0 0 0 0 0 0 0 0 0 0 0 0 0 0 0 0 0 0 0 0 0 0
0 0 0 0 0 0 0 0 0 0 0 0 0 0 0 0 0 0 0 0 0 0 0 0 0 0 0 0 0 0 0 0 0 0 0 0 0 0 0 0 0 0 0 0
0 0 0 0 0 0 0 0 0 0 0 0 0 0 0 1 1 0 0 0 0 0 0 0 0 0 0 0 0 0 0 0 0 0 0 0 0 0 0 0 0 0 0 0
0 0 0 0 0 0 0 0 0 0 0 0 0 0 1 2 1 0 0 0 0 0 0 0 0 0 0 0 0 0 0 0 0 0 0 0 0 0 0 0 0 0 0 0
0 0 0 0 0 0 0 0 0 1 1 1 0 0 1 2 1 0 0 0 0 0 0 0 0 0 0 0 0 0 0 0 0 0 0 0 0 0 0 0 0 0 0 0
Wind_Speed
2 2 4 8 7 7 5 5 6 7 6 1 4 6 8 8 10 12 11 12 11 9 7 7 7 6 6 6 5 5 5 3 2 2 2 2 2 1 1 1 1 2 1 1
3 6 12 9 7 6 6 6 6 6 4 2 4 4 5 6 10 12 13 13 12 10 7 7 8 7 6 6 5 5 4 3 3 2 1 1 2 1 1 1 2 2 1 1
6 10 7 6 8 6 6 6 6 5 4 3 4 1 3 3 3 6 8 10 11 12 12 10 9 7 6 6 5 5 4 4 3 3 2 2 3 2 2 2 1 1 1 1
6 9 7 6 6 5 6 6 4 2 1 2 2 2 3 3 2 4 7 8 10 11 10 10 10 9 7 6 5 5 4 4 4 4 4 4 3 2 0 0 1 2 2 1
6 5 3 4 5 4 6 3 1 1 1 1 3 3 4 1 1 4 7 10 10 11 11 11 10 10 8 7 5 5 5 4 4 4 4 4 3 1 1 1 2 2 2 2
6 5 3 4 4 2 1 4 5 5 5 2 3 2 3 2 5 7 9 10 10 11 10 9 8 8 7 7 6 5 5 5 4 4 4 4 4 3 3 2 2 2 2 2
7 6 4 2 3 6 5 5 4 5 4 3 3 2 5 4 3 7 10 10 9 10 11 10 10 9 8 7 6 5 5 5 4 4 4 4 3 3 3 2 1 1 1 2
2 6 4 2 1 2 1 6 6 4 3 3 3 2 3 2 1 3 7 8 9 8 8 10 10 9 8 7 6 6 5 4 3 4 3 3 3 2 1 1 1 1 1 1
2 5 5 3 0 3 1 1 5 6 2 0 3 3 3 2 3 4 6 7 8 8 8 9 9 8 7 7 6 6 5 4 3 3 3 3 3 2 2 2 2 1 1 1
3 3 5 4 4 3 3 3 4 4 4 2 3 3 3 2 2 3 4 6 6 7 7 8 8 7 6 6 5 5 5 4 3 2 2 2 2 2 2 2 2 1 2 2
2 1 5 5 2 2 2 3 4 3 3 4 2 5 3 5 5 5 5 6 7 8 8 7 6 6 7 6 5 4 4 3 2 2 2 3 2 2 2 2 2 2 2 2
1 4 1 4 4 1 2 3 4 3 2 3 3 5 3 2 2 5 6 6 7 8 8 7 7 7 6 6 5 4 3 3 3 3 3 3 2 2 2 2 2 2 2 2
3 5 3 7 7 5 2 1 3 5 3 2 3 4 2 1 3 3 6 7 7 8 8 7 7 7 6 5 4 3 3 3 3 4 3 3 2 2 2 2 2 2 2 3
4 4 5 5 5 3 3 3 1 4 3 3 4 4 2 1 3 3 4 6 7 8 8 8 7 6 5 5 4 4 3 4 4 4 3 2 2 2 2 2 2 2 2 2
4 2 2 3 3 2 3 4 3 2 4 5 5 5 6 5 5 6 6 7 8 8 8 8 7 6 5 5 4 4 4 4 3 4 3 2 1 2 2 2 2 3 3 3
3 2 1 2 2 2 3 5 2 1 2 3 3 2 3 4 4 5 7 9 9 8 8 7 7 7 6 5 5 5 4 3 3 3 2 2 2 2 2 2 2 3 3 3
2 3 2 2 4 3 3 3 1 1 1 4 3 3 4 5 7 8 8 9 9 8 8 8 7 6 6 5 5 5 4 4 4 3 2 2 2 2 2 2 3 3 3 3
5 4 3 0 3 1 4 1 3 3 2 2 3 4 5 6 5 3 5 7 8 8 8 7 6 6 5 4 4 5 4 4 4 3 2 2 2 2 2 2 2 2 2 2
5 6 3 2 0 3 2 1 1 2 1 1 5 5 5 6 5 2 2 5 7 7 7 6 6 6 5 5 5 5 4 4 3 3 2 2 2 2 2 2 1 1 2 2
4 5 5 3 2 3 4 2 0 4 1 1 6 7 7 5 3 3 3 6 7 7 7 7 6 5 5 5 5 6 5 4 3 2 2 2 2 2 2 2 1 1 1 1
2 2 3 3 3 4 3 2 2 2 5 3 5 7 6 3 4 5 7 6 7 7 7 7 7 5 4 4 5 5 4 3 2 2 2 2 2 2 2 1 1 1 1 2
5 3 2 3 2 6 3 2 3 5 2 5 4 5 5 5 6 7 8 8 8 7 7 7 6 5 4 4 5 5 3 2 2 3 2 2 1 1 2 2 1 2 2 2
4 6 6 6 6 5 1 4 3 5 5 4 4 5 8 8 7 8 7 8 7 7 6 6 6 5 3 3 4 5 3 3 3 3 2 1 1 1 2 2 1 1 1 1
1 3 4 2 2 2 4 4 4 5 6 5 6 7 8 8 8 8 7 6 6 6 5 5 6 5 4 3 4 4 4 3 4 3 2 1 2 2 2 1 1 1 1 0
3 3 3 2 3 4 3 5 6 7 8 8 7 7 8 10 8 7 7 7 6 5 5 5 6 5 5 4 4 4 4 4 4 3 2 1 1 2 1 1 1 0 1 2
3 5 6 6 7 6 5 6 8 9 8 9 9 7 7 8 9 7 6 5 6 5 5 5 5 5 5 5 4 3 4 5 5 3 2 1 1 1 1 1 1 3 1 2
Wind_Direction
302 71 249 239 218 215 234 263 275 273 265 190 176 173 180 174 161 159 159 156 153 148 146 135 127 125 116 108 108 111 109 112 115 102 104 110 114 106 88 97 95 78 63 57
356 262 243 243 257 255 250 256 269 286 280 164 143 175 188 179 176 173 166 162 155 149 149 149 140 143 141 136 125 114 111 106 101 104 113 120 116 108 97 46 55 54 49 47
223 248 252 237 251 254 260 236 239 254 317 33 112 105 214 207 159 165 168 163 157 158 160 158 154 149 141 132 125 118 109 97 91 93 90 76 55 46 41 31 12 5 37 48
249 256 263 258 250 235 261 250 223 222 59 304 123 198 263 195 163 168 174 170 166 162 161 160 154 143 136 129 117 106 95 85 82 87 92 98 101 90 46 345 350 359 15 31
267 274 283 265 250 227 237 245 207 204 139 36 7 122 284 41 186 202 184 178 173 166 164 157 152 145 137 127 118 107 97 86 82 84 92 95 89 93 61 49 36 16 354 353
261 276 250 247 270 257 219 38 24 39 68 43 274 141 265 244 224 201 186 174 169 162 150 140 136 129 123 120 115 108 99 85 79 83 84 93 95 84 76 57 36 12 351 356
322 319 305 296 343 347 48 72 25 1 14 259 272 145 239 254 243 198 179 172 163 156 148 142 139 136 134 129 123 116 109 94 84 88 82 82 87 92 91 81 57 33 4 355
316 305 312 337 165 231 278 134 156 198 224 272 329 228 252 275 19 122 148 150 148 151 148 145 147 145 140 133 126 120 110 102 90 90 85 78 80 82 74 67 66 34 352 318
210 273 302 312 355 137 79 127 170 143 161 283 281 275 297 12 67 91 133 144 153 156 155 150 145 141 137 132 126 122 116 108 99 94 90 77 67 67 67 52 48 21 350 352
175 278 309 325 24 21 140 147 82 108 152 231 271 265 249 251 213 143 136 150 157 148 145 142 140 138 136 134 128 121 123 126 117 102 103 93 67 65 66 57 41 19 7 16
90 144 318 358 20 329 17 54 90 103 146 160 236 268 240 209 201 169 154 137 144 149 146 143 139 135 133 129 128 128 132 129 123 111 95 84 69 64 58 50 32 27 22 20
90 112 307 287 279 244 142 143 129 142 228 173 177 261 308 198 165 154 144 140 144 150 146 142 139 136 134 134 134 135 135 125 125 113 101 95 85 74 61 43 24 24 21 14
114 98 22 339 342 3 35 97 139 133 127 162 176 253 321 75 80 110 135 136 138 142 139 134 133 137 138 136 130 129 122 120 115 107 101 90 78 74 61 39 27 23 16 13
112 112 157 204 239 278 303 312 317 129 149 198 210 219 256 164 129 130 138 144 140 138 141 138 133 134 137 133 129 126 124 122 117 106 102 93 85 85 77 56 35 20 18 27
99 123 214 232 255 276 294 306 304 178 181 188 209 202 215 190 173 163 151 144 142 145 148 148 148 144 140 134 128 128 126 123 118 107 100 94 91 80 70 50 28 23 28 37
90 131 59 326 296 322 342 335 330 139 149 156 148 222 203 156 145 152 159 156 159 163 159 154 152 147 145 144 140 132 127 132 122 111 109 103 92 78 64 45 39 35 33 35
121 123 103 285 306 4 350 331 15 98 130 150 177 200 149 142 161 175 173 167 164 161 155 154 150 150 149 151 146 143 141 130 117 115 117 107 100 88 69 58 52 48 44 46
147 125 126 218 20 311 248 278 102 92 44 87 115 148 149 148 144 147 151 153 158 156 152 150 147 147 147 141 137 134 129 122 119 115 121 116 107 99 81 73 62 50 53 56
151 138 122 116 126 271 281 287 131 115 4 96 133 141 128 117 87 55 125 145 157 155 150 146 144 141 139 137 136 125 119 113 113 115 118 120 116 108 95 88 73 65 66 53
92 105 117 127 165 238 249 286 125 95 300 208 143 149 149 128 137 209 168 134 130 130 131 132 130 124 130 134 129 122 120 113 121 135 130 122 114 112 109 107 87 68 77 63
79 65 119 157 203 258 268 277 80 139 231 185 148 152 157 171 187 165 141 129 127 125 126 127 127 129 137 133 124 122 124 135 152 135 113 105 103 116 122 98 74 78 69 58
164 156 173 154 190 247 280 94 155 209 159 130 129 136 134 126 116 122 129 131 129 125 125 126 126 128 134 132 128 130 143 153 134 117 108 103 109 134 118 102 70 66 72 71
167 179 172 174 205 225 187 145 156 136 122 127 135 133 127 124 123 125 129 133 133 134 134 132 133 135 142 145 139 142 161 144 124 111 109 103 68 78 107 117 111 71 68 74
267 136 113 113 195 147 123 114 107 118 125 133 132 134 131 126 130 128 132 133 134 136 138 138 139 145 156 159 152 157 160 141 125 118 113 102 102 78 57 68 108 125 127 90
205 129 114 135 170 119 119 130 126 115 113 118 125 127 133 129 131 134 139 143 143 143 145 145 150 158 166 163 159 163 157 140 131 130 128 118 117 125 91 60 33 165 220 199
210 166 162 198 197 162 173 161 135 126 129 130 125 121 132 138 140 137 143 149 150 151 148 147 153 158 162 159 158 167 162 148 142 141 151 161 155 159 144 120 21 7 330 293